{"data":{"norad_id":58112,"intl_designator":"2023-161R","name":"STARLINK-30593","alt_names":[],"object_type":"PAYLOAD","status":"ACTIVE","operator":null,"country":"US","launch_date":"2023-10-21","launch_site_code":"AFWTR","launch_vehicle":null,"mission":null,"orbit_class":"UNKNOWN","rcs_meters":null,"size_class":null,"mass_kg":null,"dimensions":null,"purposes":["comms"],"wikipedia_slug":null,"has_3d_model":false,"image_url":null,"decayed_at":null,"tle_current":{"epoch":"2026-09-20T22:28:58.146240Z","epoch_age_seconds":102676,"freshness":"FRESH","line1":"1 58112U 23161R   26263.93678410  .00000693  00000+0  31642-4 0  9994","line2":"2 58112  53.1609 338.0021 0001316  91.1566 268.9588 15.34397194164327","mean_motion":15.34397194,"eccentricity":0.0001316,"inclination_deg":53.1609,"raan_deg":338.0021,"arg_perigee_deg":91.1566,"mean_anomaly_deg":268.9588,"bstar":3.1642e-5,"rev_number":16432,"period_min":93.847929703657,"perigee_km":461.81132456999,"apogee_km":463.61183591631,"semimajor_km":6840.8485802432,"source":"CELESTRAK","updated_at":"2026-09-21T09:00:33.789139Z"}}}